• In Belarus
  • List of Countries
  • For 7 days
  • Water Temperature
  • Satellite Maps
  • Weather Map
  • Weather Widgets
  • user-avatar
    Login

    Hourly Weather Tonhe

    Today, 18 January, Friday

    Time Temperature Precipitation Wind Pressure Humidity
    00:00 -3°C° 0 mm 4 mps 759 mmHg 29%
    01:00 -3°C° 0 mm 4 mps 760 mmHg 30%
    02:00 -3°C° 0 mm 4 mps 760 mmHg 32%
    03:00 -4°C° 0 mm 4 mps 760 mmHg 34%
    04:00 -4°C° 0 mm 4 mps 760 mmHg 34%
    05:00 -4°C° 0 mm 4 mps 760 mmHg 34%
    06:00 -4°C° 0 mm 4 mps 760 mmHg 34%
    07:00 -3°C° 0 mm 4 mps 760 mmHg 32%
    08:00 -2°C° 0 mm 4 mps 761 mmHg 31%
    09:00 -1°C° 0 mm 3 mps 761 mmHg 29%
    10:00 +2°C° 0 mm 2 mps 761 mmHg 24%
    11:00 +4°C° 0 mm 2 mps 761 mmHg 20%
    12:00 +5°C° 0 mm 2 mps 760 mmHg 15%
    13:00 +7°C° 0 mm 1 mps 760 mmHg 15%
    14:00 +7°C° 0 mm 1 mps 760 mmHg 16%
    15:00 +8°C° 0 mm 1 mps 760 mmHg 16%
    16:00 +7°C° 0 mm 1 mps 760 mmHg 20%
    17:00 +5°C° 0 mm 1 mps 760 mmHg 24%
    18:00 +3°C° 0 mm 1 mps 760 mmHg 27%
    19:00 +3°C° 0 mm 1 mps 760 mmHg 27%
    20:00 +1°C° 0 mm 2 mps 760 mmHg 28%
    21:00 +1°C° 0 mm 2 mps 760 mmHg 28%
    22:00 +1°C° 0 mm 2 mps 760 mmHg 30%
    23:00 +1°C° 0 mm 2 mps 760 mmHg 32%

    Tomorrow, 19 January, Saturday

    Time Temperature Precipitation Wind Pressure Humidity
    00:00 +1°C° 0 mm 2 mps 760 mmHg 34%
    01:00 +2°C° 0 mm 2 mps 760 mmHg 38%
    02:00 +2°C° 0 mm 2 mps 760 mmHg 42%
    03:00 +2°C° 0 mm 2 mps 760 mmHg 46%
    04:00 +2°C° 0 mm 2 mps 760 mmHg 47%
    05:00 +2°C° 0 mm 2 mps 759 mmHg 49%
    06:00 +3°C° 0 mm 1 mps 759 mmHg 51%
    07:00 +4°C° 0 mm 1 mps 759 mmHg 50%
    08:00 +4°C° 0 mm 1 mps 759 mmHg 50%
    09:00 +5°C° 0 mm 1 mps 759 mmHg 50%
    10:00 +6°C° 0 mm 1 mps 759 mmHg 48%
    11:00 +7°C° 0 mm 1 mps 759 mmHg 45%
    12:00 +8°C° 0 mm 1 mps 758 mmHg 43%
    13:00 +9°C° 0 mm 1 mps 758 mmHg 44%
    14:00 +9°C° 0 mm 1 mps 757 mmHg 44%
    15:00 +9°C° 0 mm 1 mps 757 mmHg 45%
    16:00 +8°C° 0 mm 1 mps 757 mmHg 53%
    17:00 +6°C° 0 mm 1 mps 756 mmHg 60%
    18:00 +5°C° 0 mm 1 mps 756 mmHg 68%
    19:00 +3°C° 0 mm 2 mps 756 mmHg 72%
    20:00 +3°C° 0 mm 2 mps 756 mmHg 76%
    21:00 +2°C° 0 mm 3 mps 755 mmHg 80%
    22:00 +2°C° 0 mm 3 mps 755 mmHg 80%
    23:00 +2°C° 0 mm 3 mps 755 mmHg 81%

    Day after tomorrow, 20 January, Sunday

    Time Temperature Precipitation Wind Pressure Humidity
    00:00 +2°C° 0 mm 3 mps 754 mmHg 81%
    01:00 +1°C° 0 mm 4 mps 754 mmHg 81%
    02:00 +1°C° 0 mm 4 mps 754 mmHg 81%
    03:00 +1°C° 0 mm 4 mps 754 mmHg 81%
    04:00 +1°C° 0 mm 5 mps 753 mmHg 74%
    05:00 0°C° 0 mm 5 mps 753 mmHg 67%
    06:00 -1°C° 0 mm 5 mps 753 mmHg 60%
    07:00 -1°C° 0 mm 5 mps 753 mmHg 53%
    08:00 -2°C° 0 mm 6 mps 753 mmHg 45%
    09:00 -2°C° 0 mm 6 mps 754 mmHg 38%
    10:00 -1°C° 0 mm 6 mps 754 mmHg 33%
    11:00 +1°C° 0 mm 6 mps 754 mmHg 28%
    12:00 0°C° 0 mm 7 mps 754 mmHg 23%
    13:00 +1°C° 0 mm 6 mps 755 mmHg 23%
    14:00 +1°C° 0 mm 6 mps 755 mmHg 22%
    15:00 +1°C° 0 mm 5 mps 755 mmHg 22%
    16:00 0°C° 0 mm 5 mps 755 mmHg 24%
    17:00 -2°C° 0 mm 4 mps 756 mmHg 27%
    18:00 -2°C° 0 mm 3 mps 756 mmHg 30%
    19:00 -2°C° 0 mm 3 mps 757 mmHg 31%
    20:00 -4°C° 0 mm 3 mps 757 mmHg 32%
    21:00 -4°C° 0 mm 4 mps 757 mmHg 34%
    22:00 -5°C° 0 mm 4 mps 757 mmHg 33%
    23:00 -5°C° 0 mm 4 mps 757 mmHg 33%

    21 January, Monday

    Time Temperature Precipitation Wind Pressure Humidity
    00:00 -5°C° 0 mm 4 mps 757 mmHg 33%
    01:00 -6°C° 0 mm 5 mps 757 mmHg 32%
    02:00 -6°C° 0 mm 5 mps 757 mmHg 31%
    03:00 -6°C° 0 mm 6 mps 757 mmHg 30%
    04:00 -6°C° 0 mm 6 mps 757 mmHg 29%
    05:00 -6°C° 0 mm 6 mps 757 mmHg 29%
    06:00 -6°C° 0 mm 6 mps 756 mmHg 28%
    07:00 -6°C° 0 mm 7 mps 757 mmHg 30%
    08:00 -6°C° 0 mm 7 mps 757 mmHg 32%
    09:00 -4°C° 0 mm 7 mps 757 mmHg 33%
    10:00 -3°C° 0 mm 7 mps 756 mmHg 37%
    11:00 -1°C° 0 mm 7 mps 756 mmHg 41%
    12:00 +2°C° 0 mm 7 mps 755 mmHg 45%
    13:00 +1°C° 0 mm 8 mps 754 mmHg 47%
    14:00 +1°C° 0 mm 8 mps 754 mmHg 49%
    15:00 +1°C° 0 mm 9 mps 753 mmHg 51%
    16:00 0°C° 0 mm 9 mps 752 mmHg 57%
    17:00 0°C° 0 mm 9 mps 752 mmHg 63%
    18:00 -2°C° 0 mm 10 mps 752 mmHg 69%
    19:00 -2°C° 0 mm 10 mps 752 mmHg 69%
    20:00 -2°C° 0 mm 10 mps 752 mmHg 69%
    21:00 -2°C° 0 mm 10 mps 752 mmHg 69%
    22:00 -2°C° 0 mm 10 mps 752 mmHg 67%
    23:00 -2°C° 0 mm 10 mps 752 mmHg 65%

    22 January, Tuesday

    Time Temperature Precipitation Wind Pressure Humidity
    00:00 -2°C° 0 mm 10 mps 751 mmHg 63%
    01:00 -3°C° 0 mm 9 mps 751 mmHg 59%
    02:00 -3°C° 0 mm 9 mps 751 mmHg 55%
    03:00 -4°C° 0 mm 8 mps 751 mmHg 51%
    04:00 -3°C° 0 mm 7 mps 751 mmHg 49%
    05:00 -3°C° 0 mm 6 mps 751 mmHg 48%
    06:00 -4°C° 0 mm 5 mps 751 mmHg 47%
    07:00 -2°C° 0 mm 5 mps 752 mmHg 45%
    08:00 -2°C° 0 mm 4 mps 752 mmHg 44%
    09:00 -1°C° 0 mm 3 mps 753 mmHg 43%
    10:00 +1°C° 0 mm 3 mps 753 mmHg 36%
    11:00 +3°C° 0 mm 2 mps 753 mmHg 29%
    12:00 +5°C° 0 mm 2 mps 753 mmHg 23%
    13:00 +5°C° 0 mm 2 mps 753 mmHg 23%
    14:00 +5°C° 0 mm 2 mps 753 mmHg 23%
    15:00 +5°C° 0 mm 2 mps 752 mmHg 23%
    16:00 +4°C° 0 mm 2 mps 753 mmHg 27%
    17:00 +2°C° 0 mm 2 mps 753 mmHg 30%
    18:00 +1°C° 0 mm 2 mps 753 mmHg 34%
    19:00 0°C° 0 mm 3 mps 753 mmHg 35%
    20:00 -2°C° 0 mm 4 mps 754 mmHg 36%
    21:00 -2°C° 0 mm 4 mps 754 mmHg 37%
    22:00 -2°C° 0 mm 5 mps 754 mmHg 37%
    23:00 -2°C° 0 mm 5 mps 754 mmHg 36%

    23 January, Wednesday

    Time Temperature Precipitation Wind Pressure Humidity
    00:00 -2°C° 0 mm 5 mps 754 mmHg 36%
    01:00 -3°C° 0 mm 6 mps 754 mmHg 37%
    02:00 -4°C° 0 mm 6 mps 754 mmHg 37%
    03:00 -4°C° 0 mm 6 mps 754 mmHg 38%
    04:00 -4°C° 0 mm 6 mps 754 mmHg 41%
    05:00 -4°C° 0 mm 7 mps 754 mmHg 44%
    06:00 -4°C° 0 mm 7 mps 754 mmHg 47%
    07:00 -3°C° 0 mm 7 mps 755 mmHg 47%
    08:00 -3°C° 0 mm 6 mps 755 mmHg 47%
    09:00 -3°C° 0 mm 6 mps 756 mmHg 47%
    10:00 -1°C° 0 mm 6 mps 756 mmHg 43%
    11:00 +1°C° 0 mm 6 mps 757 mmHg 39%
    12:00 +2°C° 0 mm 6 mps 757 mmHg 35%
    13:00 +2°C° 0 mm 5 mps 757 mmHg 36%
    14:00 +2°C° 0 mm 5 mps 757 mmHg 37%
    15:00 +2°C° 0 mm 5 mps 757 mmHg 37%
    16:00 +1°C° 0 mm 4 mps 758 mmHg 43%
    17:00 +1°C° 0 mm 3 mps 758 mmHg 48%
    18:00 0°C° 0 mm 3 mps 759 mmHg 54%
    19:00 -1°C° 0 mm 2 mps 759 mmHg 55%
    20:00 -1°C° 0 mm 2 mps 759 mmHg 57%
    21:00 +1°C° 0 mm 1 mps 760 mmHg 58%
    22:00 +1°C° 0 mm 1 mps 760 mmHg 59%
    23:00 +1°C° 0 mm 1 mps 760 mmHg 60%
    Show more